Waarnemingen

Advertentie
Mijn weer
Geilenkirchen, Duitsland (10500): temperatuur & dauwpunt: 12.02.2019 19:00:00 - 18.02.2019 19:00:00 (CET)Geilenkirchen, Duitsland (10500): windsnelheid: 12.02.2019 19:00:00 - 18.02.2019 19:00:00 (CET)Geilenkirchen, Duitsland (10500): windrichting: 12.02.2019 19:00:00 - 18.02.2019 19:00:00 (CET)Geilenkirchen, Duitsland (10500): luchtdruk: 12.02.2019 19:00:00 - 18.02.2019 19:00:00 (CET)Geilenkirchen, Duitsland (10500): zicht: 12.02.2019 19:00:00 - 18.02.2019 19:00:00 (CET)
Datum & Tijd tt [°C] td [°C] ff [km/u] ff [kn] dd ppp [hPa] vv [km]
18.02.2019 19:00:00 12,3 1,7 9 5 ZZW 1016,1 10
18.02.2019 18:00:00 13,9 2,1 11 6 ZZW 1015,6 10
18.02.2019 17:00:00 16,5 1,1 8 4 ZW 1015,5 10
18.02.2019 16:00:00 17,0 2,7 8 4 O 1015,7 10
18.02.2019 15:00:00 17,0 3,6 5 3 ONO 1015,9 10
18.02.2019 14:00:00 16,2 3,4 8 4 NO 1016,8 10
18.02.2019 13:00:00 16,9 0,8 4 2 OZO 1017,7 10
18.02.2019 12:00:00 16,1 -0,6 9 5 WZW 1018,4 10
18.02.2019 11:00:00 15,4 0,0 4 2 ZW 1018,6 10
18.02.2019 10:00:00 12,2 1,6 2 1 W 1019,1 10
18.02.2019 09:00:00 5,1 0,1 4 2 ZZW 1019,4 10
18.02.2019 08:00:00 1,5 -2,1 4 2 OZO 1019,5 10
18.02.2019 07:00:00 0,4 -2,7 5 3 O 1019,8 10
18.02.2019 06:00:00 0,8 -2,6 4 2 OZO 1019,9 10
18.02.2019 05:00:00 3,1 -2,4 4 2 O 1019,8 10
18.02.2019 04:00:00 8,4 -1,0 4 2 OZO 1019,7 10
18.02.2019 03:00:00 6,8 -1,0 5 3 ZO 1020,1 10
18.02.2019 02:00:00 2,9 -1,6 4 2 OZO 1020,3 10
18.02.2019 01:00:00 2,5 -1,5 4 2 O 1020,4 10
18.02.2019 00:00:00 4,1 -0,7 2 1 OZO 1020,4 10
17.02.2019 23:00:00 4,7 -0,1 4 2 ZO 1020,7 10
17.02.2019 22:00:00 8,0 0,1 2 1 ZZO 1020,5 10
17.02.2019 21:00:00 9,2 0,2 2 1 OZO 1020,4 10
17.02.2019 20:00:00 12,9 0,3 5 3 Z 1019,9 10
17.02.2019 19:00:00 13,8 0,6 5 3 ZZO 1019,9 10
17.02.2019 18:00:00 - - - - - - -
17.02.2019 17:00:00 - - - - - - -
17.02.2019 16:00:00 - - - - - - -
17.02.2019 15:00:00 - - - - - - -
17.02.2019 14:00:00 - - - - - - -
17.02.2019 13:00:00 - - - - - - -
17.02.2019 12:00:00 - - - - - - -
17.02.2019 11:00:00 - - - - - - -
17.02.2019 10:00:00 - - - - - - -
17.02.2019 09:00:00 - - - - - - -
17.02.2019 08:00:00 - - - - - - -
17.02.2019 07:00:00 - - - - - - -
17.02.2019 06:00:00 - - - - - - -
17.02.2019 05:00:00 - - - - - - -
17.02.2019 04:00:00 - - - - - - -
17.02.2019 03:00:00 - - - - - - -
17.02.2019 02:00:00 - - - - - - -
17.02.2019 01:00:00 - - - - - - -
17.02.2019 00:00:00 - - - - - - -
16.02.2019 23:00:00 - - - - - - -
16.02.2019 22:00:00 - - - - - - -
16.02.2019 21:00:00 - - - - - - -
16.02.2019 20:00:00 - - - - - - -
16.02.2019 19:00:00 - - - - - - -
16.02.2019 18:00:00 - - - - - - -
16.02.2019 17:00:00 - - - - - - -
16.02.2019 16:00:00 - - - - - - -
16.02.2019 15:00:00 - - - - - - -
16.02.2019 14:00:00 - - - - - - -
16.02.2019 13:00:00 - - - - - - -
16.02.2019 12:00:00 - - - - - - -
16.02.2019 11:00:00 - - - - - - -
16.02.2019 10:00:00 - - - - - - -
16.02.2019 09:00:00 - - - - - - -
16.02.2019 08:00:00 - - - - - - -
16.02.2019 07:00:00 - - - - - - -
16.02.2019 06:00:00 - - - - - - -
16.02.2019 05:00:00 - - - - - - -
16.02.2019 04:00:00 - - - - - - -
16.02.2019 03:00:00 - - - - - - -
16.02.2019 02:00:00 - - - - - - -
16.02.2019 01:00:00 - - - - - - -
16.02.2019 00:00:00 - - - - - - -
15.02.2019 23:00:00 - - - - - - -
15.02.2019 22:00:00 - - - - - - -
15.02.2019 21:00:00 - - - - - - -
15.02.2019 20:00:00 9,8 4,1 4 2 O 1028,0 10
15.02.2019 19:00:00 11,5 4,0 5 3 OZO 1028,2 10
15.02.2019 18:00:00 10,7 3,7 8 4 O 1028,2 10
15.02.2019 17:00:00 15,4 5,5 11 6 O 1028,3 10
15.02.2019 16:00:00 15,8 4,8 13 7 O 1029,0 10
15.02.2019 15:00:00 15,9 4,8 11 6 O 1029,7 10
15.02.2019 14:00:00 15,0 4,0 11 6 OZO 1030,6 10
15.02.2019 13:00:00 13,2 2,9 9 5 O 1031,4 10
15.02.2019 12:00:00 11,4 1,1 9 5 O 1032,0 10
15.02.2019 11:00:00 9,3 -0,4 8 4 O 1032,3 10
15.02.2019 10:00:00 6,0 -1,5 8 4 ONO 1032,7 10
15.02.2019 09:00:00 3,7 -2,9 5 3 O 1032,9 10
15.02.2019 08:00:00 -1,1 -3,8 11 6 O 1032,8 10
15.02.2019 07:00:00 -1,6 -3,9 8 4 O 1032,8 10
15.02.2019 06:00:00 -1,4 -3,6 8 4 O 1032,8 10
15.02.2019 05:00:00 -1,2 -3,8 9 5 O 1033,0 10
15.02.2019 04:00:00 -0,7 -3,4 5 3 O 1033,3 10
15.02.2019 03:00:00 0,7 -3,4 5 3 O 1033,6 10
15.02.2019 02:00:00 2,3 -2,7 4 2 O 1033,9 25
15.02.2019 01:00:00 -0,5 -2,5 9 5 ZO 1034,0 10
15.02.2019 00:00:00 2,2 -0,4 4 2 O 1033,7 10
14.02.2019 23:00:00 2,2 -0,5 4 2 - 1033,8 10
14.02.2019 22:00:00 4,7 0,0 9 5 ZZO 1033,8 10
14.02.2019 21:00:00 3,2 -0,1 5 3 - 1034,1 10
14.02.2019 20:00:00 4,3 0,2 8 4 ONO 1034,2 10
14.02.2019 19:00:00 3,9 1,3 8 4 O 1034,4 10
14.02.2019 18:00:00 7,0 1,9 4 2 OZO 1034,1 10
14.02.2019 17:00:00 11,9 1,7 15 8 O 1034,1 10
14.02.2019 16:00:00 14,8 1,4 11 6 O 1034,4 10
14.02.2019 15:00:00 15,8 -1,1 8 4 ONO 1034,6 10
14.02.2019 14:00:00 14,7 1,2 9 5 O 1035,1 10
14.02.2019 13:00:00 14,0 -0,2 8 4 NO 1035,8 10
14.02.2019 12:00:00 13,0 -1,7 2 1 O 1036,3 10
14.02.2019 11:00:00 10,2 -1,0 5 3 ZZO 1036,4 10
14.02.2019 10:00:00 5,5 -0,9 2 1 O 1036,7 10
14.02.2019 09:00:00 2,1 -2,4 0 0 O 1037,0 10
14.02.2019 08:00:00 -2,5 -4,3 4 2 OZO 1036,6 10
14.02.2019 07:00:00 -3,5 -5,1 8 4 ZZO 1036,1 10
14.02.2019 06:00:00 -2,8 -4,0 5 3 O 1036,2 10
14.02.2019 05:00:00 -2,9 -3,3 4 2 ZZO 1036,0 15
14.02.2019 04:00:00 -2,0 -3,3 2 1 ZO 1036,0 10
14.02.2019 03:00:00 -1,3 -2,1 4 2 ZZO 1036,1 10
14.02.2019 02:00:00 -1,2 -1,7 9 5 Z 1036,0 10
14.02.2019 01:00:00 -0,9 -1,6 8 4 ZZO 1036,2 10
14.02.2019 00:00:00 0,2 -1,1 8 4 Z 1036,1 10
13.02.2019 23:00:00 1,0 -0,5 5 3 ZZO 1036,4 10
13.02.2019 22:00:00 1,7 0,2 8 4 ZZO 1036,5 10
13.02.2019 21:00:00 2,0 0,1 4 2 Z 1036,6 10
13.02.2019 20:00:00 2,3 0,6 4 2 ZZO 1036,6 10
13.02.2019 19:00:00 3,3 0,8 4 2 ZO 1036,6 10
13.02.2019 18:00:00 6,1 1,6 2 1 Z 1036,3 10
13.02.2019 17:00:00 7,4 1,8 5 3 W 1036,2 10
13.02.2019 16:00:00 8,0 1,4 4 2 ZW 1036,0 10
13.02.2019 15:00:00 8,1 1,0 8 4 ZZW 1036,3 10
13.02.2019 14:00:00 7,5 0,6 13 7 WZW 1037,0 10
13.02.2019 13:00:00 7,1 0,4 13 7 WZW 1037,1 10
13.02.2019 12:00:00 6,4 0,3 13 7 ZW 1037,3 10
13.02.2019 11:00:00 6,0 -0,2 13 7 WZW 1037,4 10
13.02.2019 10:00:00 4,3 -0,4 11 6 WZW 1037,4 10
13.02.2019 09:00:00 2,9 -0,8 11 6 ZZW 1037,3 10
13.02.2019 08:00:00 2,2 -0,9 13 7 ZZW 1036,9 10
13.02.2019 07:00:00 2,1 -0,8 9 5 ZZW 1036,4 10
13.02.2019 06:00:00 2,3 -0,7 9 5 ZZW 1036,3 10
13.02.2019 05:00:00 2,4 -0,6 13 7 ZZW 1036,3 10
13.02.2019 04:00:00 2,7 -0,3 11 6 ZW 1036,7 10
13.02.2019 03:00:00 2,5 0,1 13 7 ZW 1037,1 10
13.02.2019 02:00:00 2,7 0,2 11 6 ZW 1037,0 10
13.02.2019 01:00:00 3,1 0,3 9 5 ZW 1036,7 10
13.02.2019 00:00:00 3,1 0,5 11 6 ZW 1036,7 10
12.02.2019 23:00:00 3,4 0,9 11 6 ZW 1036,3 10
12.02.2019 22:00:00 3,9 1,1 11 6 ZW 1036,3 10
12.02.2019 21:00:00 4,3 1,2 8 4 ZW 1036,1 10
12.02.2019 20:00:00 4,7 1,5 8 4 ZW 1035,7 10
12.02.2019 19:00:00 5,7 1,9 9 5 ZW 1035,8 10

tt = temperatuur
td = dauwpunt
ff = windsnelheid
dd = windrichting
ppp = luchtdruk
vv = zicht

Weerstations in de omgeving